User: anonymous   Login
Location: Unspecified
(0.0000°N, 0.0000°E)
Time: 14:53:28
(UTC+00:00)
Language:

SAMSAT 218D - Orbit

View from above orbital plane
View from above orbital plane
View from above satellite
View from above satellite

Ground track
Ground track

The orbit data is extracted from the following two-line orbital elements,

1 41466U 16026C   18203.19278998  .00003928  00000-0  10361-3 0  9999
2 41466  97.2240 106.1093 0007456 213.0316 301.0631 15.39050817124971
Epoch (UTC): 22 July 2018 04:37:37
Eccentricity: 0.0007456
inclination: 97.2240°
perigee height: 444 km
apogee height: 454 km
right ascension of ascending node: 106.1093°
argument of perigee: 213.0316°
revolutions per day: 15.39050817
mean anomaly at epoch: 301.0631°
orbit number at epoch: 12497

The dashed part of the orbit path shows where the satellite is in the earth's shadow,  

DLR